默认 日期 大小 文件数 浏览量 最新下载 xml
game only磁力链接相关资源由用户搜索指令自动获取,结果来源于网络,本站不存储任何资料,亦不承担任何责任,请于24小时内删除,搜索到359个磁力,用时5ms。
    {"TutsGalaxy.com.txt": 52, "Download more courses.url": 123, "Downloaded from TutsGalaxy.com.txt": 73, "JavaScript Breakout Game from scratch with only JavaScript.zip": 780570153}
创建时间: 2019-06-14 04:42:57 大小:744.41 MB 文件数量:4 热度:4 最近下载:2025-03-29 02:52:02
    {"READ ME FIRST !!!.txt": 1459, "visit-www.nosteam.ro.html": 732, "GameofThrones-Telltale_nosTEAM-E4.exe": 2617867678}
创建时间: 2019-06-28 22:35:54 大小:2.44 GB 文件数量:3 热度:6 最近下载:2024-12-06 08:29:03
    {"Install Notes ( Read me Now).txt": 330, "Torrent Downloaded From ExtraTorrent.com.txt": 353, "GTA San Andreas PC Game (Highly compressed ) @ Only By THE RAIN.rar": 717524346}
创建时间: 2019-07-20 10:52:49 大小:684.29 MB 文件数量:3 热度:3 最近下载:2021-06-17 16:25:58
    ... }, "James Cameron's AVATAR - THE GAME.exe": 2393307068, "Torrent Downloaded From ... , "James Cameron's Avatar The Game CRACK Working 100%": {"eax.dll ...
创建时间: 2019-08-28 10:53:15 大小:2.26 GB 文件数量:27 热度:6 最近下载:2024-11-21 14:19:01
    {"pml.18.06.22.cosmia.the.only.game.to.play[N1C].mp4": 1303335313}
创建时间: 2019-09-29 14:16:29 大小:1.21 GB 文件数量:1 热度:10 最近下载:2025-03-21 22:15:02
    {"NMW.exe": 373455884, "Install Notes.txt": 292, "Need for Speed Most Wanted": {"Nis": {"Scene_Fmvpsa_Bundleb.bun": 1684, "Scene_Wmboat_Bundleb.bun": 2920, "Scene_Wmgate_Bundleb.bun": 2112, "Scene_Fmv20t1_Bundleb.bun": 18344, "Scene_Fmvtest_Bundleb.bun": ...
创建时间: 2019-10-10 17:35:07 大小:2.35 GB 文件数量:1393 热度:16 最近下载:2025-10-09 12:47:01
    {"HKRG.png": 259820, "Insane 2.rar": 547066594, "THE RAIN.txt": 22952, "Install Notes.txt": 192, "tracked_by_h33t_com.txt": 40, "Torrent Downloaded From ExtraTorrent.com.txt": 353, "Torrent downloaded from Silvertorrent.org.txt": 86, "Torrent downloaded ...
创建时间: 2019-12-09 01:42:07 大小:521.99 MB 文件数量:8 热度:21 最近下载:2025-04-06 15:37:03
    {"ReadMe.pdf": 9608, "Namste America Gta San Andreas PC GAME (5 GB ONLY 18.exe": 5098634, "Namste America Gta San Andreas PC GAME (5 GB ONLY 18.nfo": 508}
创建时间: 2019-12-23 04:55:16 大小:4.87 MB 文件数量:3 热度:8 最近下载:2025-04-01 02:31:02
    {"ReadMe.pdf": 9608, "Namste America Gta San Andreas PC GAME (5 GB ONLY 18.exe": 5098634, "Namste America Gta San Andreas PC GAME (5 GB ONLY 18.nfo": 508}
创建时间: 2019-12-24 08:06:38 大小:4.87 MB 文件数量:3 热度:6 最近下载:2025-03-31 13:59:03
    {"ReadMe.pdf": 9608, "Namste America Gta San Andreas PC GAME (5 GB ONLY 18.exe": 5098632, "Namste America Gta San Andreas PC GAME (5 GB ONLY 18.nfo": 508}
创建时间: 2019-12-30 05:53:31 大小:4.87 MB 文件数量:3 热度:4 最近下载:2025-03-21 22:01:57
    {"ReadMe.pdf": 9608, "Namste America Gta San Andreas PC GAME (5 GB ONLY 18.exe": 5098634, "Namste America Gta San Andreas PC GAME (5 GB ONLY 18.nfo": 508}
创建时间: 2019-12-30 12:24:45 大小:4.87 MB 文件数量:3 热度:2 最近下载:2025-03-21 21:59:03
    {"ReadMe.pdf": 9608, "Namste America Gta San Andreas PC GAME (5 GB ONLY 18.exe": 5098630, "Namste America Gta San Andreas PC GAME (5 GB ONLY 18.nfo": 508}
创建时间: 2020-01-01 21:58:18 大小:4.87 MB 文件数量:3 热度:5 最近下载:2025-03-28 04:40:01
    {"ReadMe.pdf": 9608, "Namste America Gta San Andreas PC GAME (5 GB ONLY 18.exe": 5098634, "Namste America Gta San Andreas PC GAME (5 GB ONLY 18.nfo": 508}
创建时间: 2020-01-02 19:30:59 大小:4.87 MB 文件数量:3 热度:5 最近下载:2025-03-28 14:45:01
    {"ReadMe.pdf": 9608, "Namste America Gta San Andreas PC GAME (5 GB ONLY 18.exe": 5098634, "Namste America Gta San Andreas PC GAME (5 GB ONLY 18.nfo": 508}
创建时间: 2020-01-04 15:17:20 大小:4.87 MB 文件数量:3 热度:4 最近下载:2025-03-21 21:59:03
    {"hr-atkgbv2.nfo": 20150, "hr-atkgbv2.nsp": 21756256}
创建时间: 2020-01-06 01:35:27 大小:20.77 MB 文件数量:2 热度:5 最近下载:2025-01-01 04:42:02
    {"ReadMe.pdf": 9608, "Namste America Gta San Andreas PC GAME (5 GB ONLY 18.exe": 5098634, "Namste America Gta San Andreas PC GAME (5 GB ONLY 18.nfo": 508}
创建时间: 2020-01-23 02:52:44 大小:4.87 MB 文件数量:3 热度:4 最近下载:2025-03-21 22:06:01
    ... .jpg": 1514242}}, "screenshots": {"Kagikko L-only 1.jpg": 617590, "Kagikko L ... directly.txt": 1351}, "Kagikko L-only jpn": {"data": {"img": {"m001.jpg ... ": {"kagikko_poster.jpg": 2743496, "Kagikko L-only 1.jpg": 563355, "Kagikko L ...
创建时间: 2020-01-23 07:34:32 大小:7.74 GB 文件数量:562 热度:9 最近下载:2025-02-16 11:33:04
    {"ReadMe.pdf": 9608, "Namste America Gta San Andreas PC GAME (5 GB ONLY 18.exe": 5096633, "Namste America Gta San Andreas PC GAME (5 GB ONLY 18.nfo": 508}
创建时间: 2020-01-27 12:03:26 大小:4.87 MB 文件数量:3 热度:4 最近下载:2025-03-28 19:02:05
    {"RARBG.COM.mp4": 1016764, "RARBG.COM.txt": 34, "The.Only.Game.in.Town.1970.720p.BluRay.H264.AAC-RARBG.mp4": 1470349953, "The.Only.Game.in.Town.1970.720p.BluRay.H264.AAC-RARBG.nfo": 4000}
创建时间: 2020-02-02 01:41:23 大小:1.37 GB 文件数量:4 热度:2 最近下载:2022-04-13 07:20:46
    {"ReadMe.pdf": 9608, "Namste America Gta San Andreas PC GAME (5 GB ONLY 18.exe": 5096633, "Namste America Gta San Andreas PC GAME (5 GB ONLY 18.nfo": 508}
创建时间: 2020-02-02 13:52:26 大小:4.87 MB 文件数量:3 热度:2 最近下载:2025-03-21 22:01:57